Time,TemperatureF,DewpointF,PressureIn,WindDirection,WindDirectionDegrees,WindSpeedMPH,WindSpeedGustMPH,Humidity,HourlyPrecipIn,Conditions,Clouds,dailyrainin,SoftwareType,DateUTC
2013-02-13 00:00:00,31.8,27.0,29.95,SE,139,0.0,0.0,82,0.00,CLR,,0.00,WeatherDisplay:10.37,2013-02-13 05:00:00,
2013-02-13 00:15:00,31.6,26.8,29.95,SE,140,0.0,0.0,82,0.00,CLR,,0.00,WeatherDisplay:10.37,2013-02-13 05:15:00,
2013-02-13 00:30:00,31.6,26.8,29.95,SE,140,0.0,0.0,82,0.00,CLR,,0.00,WeatherDisplay:10.37,2013-02-13 05:30:00,
2013-02-13 00:45:00,31.5,26.3,29.95,SE,140,0.0,0.0,81,0.00,CLR,,0.00,WeatherDisplay:10.37,2013-02-13 05:45:00,
2013-02-13 01:00:00,31.6,26.5,29.99,SE,140,0.0,0.0,81,0.00,CLR,,0.00,WeatherDisplay:10.37,2013-02-13 06:00:00,
2013-02-13 01:15:00,31.8,26.7,29.99,SE,140,0.0,0.0,81,0.00,CLR,,0.00,WeatherDisplay:10.37,2013-02-13 06:15:00,
2013-02-13 01:30:00,31.8,26.4,29.99,SE,139,0.0,0.0,80,0.00,CLR,,0.00,WeatherDisplay:10.37,2013-02-13 06:30:00,
2013-02-13 01:45:00,31.3,25.5,29.99,SE,140,0.0,0.0,79,0.00,CLR,,0.00,WeatherDisplay:10.37,2013-02-13 06:45:00,
2013-02-13 02:00:00,31.1,25.3,29.99,SE,140,0.0,0.0,79,0.00,CLR,,0.00,WeatherDisplay:10.37,2013-02-13 07:00:00,
2013-02-13 02:15:00,30.7,25.0,29.95,SE,139,0.0,0.0,79,0.00,CLR,,0.00,WeatherDisplay:10.37,2013-02-13 07:15:00,
2013-02-13 02:30:00,30.2,24.2,29.95,SE,137,0.0,0.0,78,0.00,CLR,,0.00,WeatherDisplay:10.37,2013-02-13 07:30:00,
2013-02-13 02:45:00,30.4,24.3,29.95,NE,50,0.0,0.0,78,0.00,CLR,,0.00,WeatherDisplay:10.37,2013-02-13 07:45:00,
2013-02-13 03:00:00,30.4,23.4,29.93,NE,50,0.0,0.0,75,0.00,CLR,,0.00,WeatherDisplay:10.37,2013-02-13 08:00:00,
2013-02-13 03:15:00,30.4,23.4,29.93,NE,50,0.0,0.0,75,0.00,CLR,,0.00,WeatherDisplay:10.37,2013-02-13 08:15:00,
2013-02-13 03:30:00,30.2,22.9,29.93,NE,50,0.0,0.0,74,0.00,CLR,,0.00,WeatherDisplay:10.37,2013-02-13 08:30:00,
2013-02-13 03:45:00,29.7,22.7,29.93,NE,50,0.0,0.0,75,0.00,CLR,,0.00,WeatherDisplay:10.37,2013-02-13 08:45:00,
2013-02-13 04:00:00,29.7,22.7,29.93,NE,50,0.0,0.0,75,0.00,CLR,,0.00,WeatherDisplay:10.37,2013-02-13 09:00:00,
2013-02-13 04:15:00,29.5,22.8,29.93,NE,50,0.0,0.0,76,0.00,CLR,,0.00,WeatherDisplay:10.37,2013-02-13 09:15:00,
2013-02-13 04:30:00,29.1,22.5,29.93,NE,50,0.0,0.0,76,0.00,CLR,,0.00,WeatherDisplay:10.37,2013-02-13 09:30:00,
2013-02-13 04:45:00,28.6,22.0,29.93,NE,50,0.0,0.0,76,0.00,CLR,,0.00,WeatherDisplay:10.37,2013-02-13 09:45:00,
2013-02-13 05:00:00,27.9,21.6,29.93,NE,50,0.0,0.0,77,0.00,CLR,,0.00,WeatherDisplay:10.37,2013-02-13 10:00:00,
2013-02-13 05:15:00,27.7,22.0,29.93,NE,50,0.0,0.0,79,0.00,CLR,,0.00,WeatherDisplay:10.37,2013-02-13 10:15:00,
2013-02-13 05:45:00,27.7,22.6,29.93,NE,50,0.0,0.0,81,0.00,CLR,,0.00,WeatherDisplay:10.37,2013-02-13 10:45:00,
2013-02-13 06:00:00,27.9,23.1,29.93,NE,50,0.0,0.0,82,0.00,CLR,,0.00,WeatherDisplay:10.37,2013-02-13 11:00:00,
2013-02-13 06:15:00,28.0,23.3,29.93,NE,50,0.0,0.0,82,0.00,CLR,,0.00,WeatherDisplay:10.37,2013-02-13 11:15:00,
2013-02-13 06:30:00,28.4,23.9,29.90,NE,50,0.0,0.0,83,0.00,CLR,,0.00,WeatherDisplay:10.37,2013-02-13 11:30:00,
2013-02-13 06:45:00,29.5,25.2,29.90,NE,50,0.0,0.0,84,0.00,CLR,,0.00,WeatherDisplay:10.37,2013-02-13 11:45:00,
2013-02-13 07:00:00,30.4,26.1,29.90,NE,50,0.0,0.0,84,0.00,CLR,,0.00,WeatherDisplay:10.37,2013-02-13 12:00:00,
2013-02-13 07:15:00,31.3,26.7,29.90,NE,50,0.0,0.0,83,0.00,CLR,,0.00,WeatherDisplay:10.37,2013-02-13 12:15:00,
2013-02-13 07:30:00,32.9,27.1,29.90,NE,50,0.0,2.0,79,0.00,CLR,,0.00,WeatherDisplay:10.37,2013-02-13 12:30:00,
2013-02-13 07:45:00,34.0,26.2,29.90,ENE,57,1.0,5.0,73,0.00,CLR,,0.00,WeatherDisplay:10.37,2013-02-13 12:45:00,
2013-02-13 08:00:00,35.4,25.5,29.90,NE,52,5.0,6.0,67,0.00,CLR,,0.00,WeatherDisplay:10.37,2013-02-13 13:00:00,
2013-02-13 08:15:00,36.7,25.3,29.87,NE,50,5.0,8.0,63,0.00,CLR,,0.00,WeatherDisplay:10.37,2013-02-13 13:15:00,
2013-02-13 08:30:00,38.3,25.2,29.90,NE,47,7.0,9.0,59,0.00,CLR,,0.00,WeatherDisplay:10.37,2013-02-13 13:30:00,
2013-02-13 08:45:00,39.2,26.1,29.87,NE,53,8.0,10.0,59,0.00,CLR,,0.00,WeatherDisplay:10.37,2013-02-13 13:45:00,
2013-02-13 09:00:00,39.4,25.8,29.90,ENE,73,6.0,7.0,58,0.00,CLR,,0.00,WeatherDisplay:10.37,2013-02-13 14:00:00,
2013-02-13 09:15:00,40.1,26.5,29.90,ENE,58,5.0,7.0,58,0.00,BKN,,0.00,WeatherDisplay:10.37,2013-02-13 14:15:00,
2013-02-13 09:30:00,40.3,26.2,29.90,ENE,70,5.0,7.0,57,0.00,OVC,,0.00,WeatherDisplay:10.37,2013-02-13 14:30:00,
2013-02-13 09:45:00,41.0,26.5,29.90,NE,55,8.0,9.0,56,0.00,OVC,,0.00,WeatherDisplay:10.37,2013-02-13 14:45:00,
2013-02-13 10:00:00,43.0,27.9,29.90,ENE,60,7.0,11.0,55,0.00,OVC,,0.00,WeatherDisplay:10.37,2013-02-13 15:00:00,
2013-02-13 10:15:00,42.6,26.7,29.87,ENE,57,7.0,11.0,53,0.00,OVC,,0.00,WeatherDisplay:10.37,2013-02-13 15:15:00,
2013-02-13 10:30:00,42.8,26.4,29.87,NE,50,9.0,10.0,52,0.00,OVC,,0.00,WeatherDisplay:10.37,2013-02-13 15:30:00,
2013-02-13 10:45:00,42.6,26.2,29.87,NE,49,8.0,12.0,52,0.00,BKN,,0.00,WeatherDisplay:10.37,2013-02-13 15:45:00,
2013-02-13 11:00:00,42.6,26.2,29.87,ENE,72,8.0,9.0,52,0.00,BKN,,0.00,WeatherDisplay:10.37,2013-02-13 16:00:00,
2013-02-13 11:15:00,43.3,26.9,29.87,ENE,74,7.0,9.0,52,0.00,BKN,,0.00,WeatherDisplay:10.37,2013-02-13 16:15:00,
2013-02-13 11:30:00,42.8,27.3,29.87,ENE,71,6.0,7.0,54,0.00,BKN,,0.00,WeatherDisplay:10.37,2013-02-13 16:30:00,
2013-02-13 11:45:00,44.1,28.9,29.84,East,84,7.0,9.0,55,0.00,OVC,,0.00,WeatherDisplay:10.37,2013-02-13 16:45:00,
2013-02-13 12:00:00,44.8,29.1,29.84,ENE,75,8.0,13.0,54,0.00,BKN,,0.00,WeatherDisplay:10.37,2013-02-13 17:00:00,
2013-02-13 12:15:00,45.7,30.0,29.81,East,101,8.0,12.0,54,0.00,SCT,,0.00,WeatherDisplay:10.37,2013-02-13 17:15:00,
2013-02-13 12:30:00,46.9,30.2,29.81,ENE,71,7.0,9.0,52,0.00,SCT,,0.00,WeatherDisplay:10.37,2013-02-13 17:30:00,
2013-02-13 12:45:00,47.7,29.9,29.78,ENE,74,8.0,12.0,50,0.00,FEW,,0.00,WeatherDisplay:10.37,2013-02-13 17:45:00,
2013-02-13 13:00:00,47.1,28.9,29.78,ENE,58,10.0,14.0,49,0.00,CLR,,0.00,WeatherDisplay:10.37,2013-02-13 18:00:00,
2013-02-13 13:15:00,46.6,28.4,29.78,NE,50,10.0,15.0,49,0.00,FEW,,0.00,WeatherDisplay:10.37,2013-02-13 18:15:00,
2013-02-13 13:30:00,46.2,28.1,29.75,ENE,66,13.0,15.0,49,0.00,FEW,,0.00,WeatherDisplay:10.37,2013-02-13 18:30:00,
2013-02-13 13:45:00,46.6,29.4,29.75,ENE,60,10.0,14.0,51,0.00,CLR,,0.00,WeatherDisplay:10.37,2013-02-13 18:45:00,
2013-02-13 14:00:00,46.2,30.0,29.75,ENE,64,12.0,12.0,53,0.00,FEW,,0.00,WeatherDisplay:10.37,2013-02-13 19:00:00,
2013-02-13 14:15:00,46.2,29.5,29.72,NE,48,10.0,12.0,52,0.00,SCT,,0.00,WeatherDisplay:10.37,2013-02-13 19:15:00,
2013-02-13 14:30:00,46.8,30.0,29.72,ENE,61,9.0,11.0,52,0.00,SCT,,0.00,WeatherDisplay:10.37,2013-02-13 19:30:00,
2013-02-13 14:45:00,47.1,30.9,29.72,ENE,68,10.0,13.0,53,0.00,BKN,,0.00,WeatherDisplay:10.37,2013-02-13 19:45:00,
2013-02-13 15:00:00,45.9,29.7,29.69,ENE,68,9.0,14.0,53,0.00,BKN,,0.00,WeatherDisplay:10.37,2013-02-13 20:00:00,
2013-02-13 15:15:00,44.1,29.8,29.69,ENE,64,8.0,12.0,57,0.00,BKN,,0.00,WeatherDisplay:10.37,2013-02-13 20:15:00,
2013-02-13 15:30:00,42.6,30.5,29.69,ENE,57,9.0,11.0,62,0.00,BKN,,0.00,WeatherDisplay:10.37,2013-02-13 20:30:00,
2013-02-13 15:45:00,41.5,31.0,29.69,NE,49,9.0,12.0,66,0.00,OVC,,0.00,WeatherDisplay:10.37,2013-02-13 20:45:00,
2013-02-13 16:00:00,41.0,32.0,29.66,NE,44,9.0,12.0,70,0.00,OVC,,0.00,WeatherDisplay:10.37,2013-02-13 21:00:00,
2013-02-13 16:15:00,40.3,32.0,29.66,NE,54,9.0,11.0,72,0.00,OVC,,0.00,WeatherDisplay:10.37,2013-02-13 21:15:00,
2013-02-13 16:30:00,39.4,32.1,29.66,NE,48,8.0,11.0,75,0.01,RA,,0.01,WeatherDisplay:10.37,2013-02-13 21:30:00,
2013-02-13 16:45:00,38.8,32.6,29.66,NE,54,9.0,12.0,78,0.00,OVC,,0.01,WeatherDisplay:10.37,2013-02-13 21:45:00,
2013-02-13 17:00:00,38.7,33.0,29.66,NE,45,9.0,12.0,80,0.00,OVC,,0.01,WeatherDisplay:10.37,2013-02-13 22:00:00,
2013-02-13 17:15:00,38.5,33.2,29.63,NE,39,9.0,14.0,81,0.01,RA,,0.03,WeatherDisplay:10.37,2013-02-13 22:15:00,
2013-02-13 17:30:00,38.3,33.6,29.63,NE,39,10.0,13.0,83,0.00,OVC,,0.03,WeatherDisplay:10.37,2013-02-13 22:30:00,
2013-02-13 17:45:00,38.3,33.9,29.63,NE,37,10.0,13.0,84,0.01,OVC,,0.04,WeatherDisplay:10.37,2013-02-13 22:45:00,
2013-02-13 18:00:00,38.1,34.3,29.63,NNE,33,10.0,13.0,86,0.01,RA,,0.06,WeatherDisplay:10.37,2013-02-13 23:00:00,
2013-02-13 18:15:00,37.8,34.2,29.63,NNE,31,10.0,13.0,87,0.00,OVC,,0.06,WeatherDisplay:10.37,2013-02-13 23:15:00,
2013-02-13 18:30:00,37.9,34.7,29.63,NNE,24,8.0,13.0,88,0.03,RA,,0.09,WeatherDisplay:10.37,2013-02-13 23:30:00,
2013-02-13 18:45:00,37.9,35.0,29.63,NNE,12,7.0,9.0,89,0.04,RA,,0.13,WeatherDisplay:10.37,2013-02-13 23:45:00,
2013-02-13 19:00:00,37.9,35.3,29.63,NNE,23,6.0,9.0,90,0.01,OVC,,0.14,WeatherDisplay:10.37,2013-02-14 00:00:00,
2013-02-13 19:15:00,37.6,35.2,29.63,NNE,19,7.0,12.0,91,0.04,RA,,0.18,WeatherDisplay:10.37,2013-02-14 00:15:00,
2013-02-13 19:30:00,37.4,35.3,29.63,NNE,17,6.0,8.0,92,0.01,RA,,0.20,WeatherDisplay:10.37,2013-02-14 00:30:00,
2013-02-13 19:45:00,37.2,35.4,29.63,NNE,21,6.0,8.0,93,0.01,RA,,0.21,WeatherDisplay:10.37,2013-02-14 00:45:00,
2013-02-13 20:00:00,37.0,35.5,29.63,NNE,20,5.0,7.0,94,0.03,RA,,0.24,WeatherDisplay:10.37,2013-02-14 01:00:00,
2013-02-13 20:15:00,36.9,35.3,29.63,NNE,20,5.0,6.0,94,0.00,CLR,,0.26,WeatherDisplay:10.37,2013-02-14 01:15:00,
2013-02-13 20:45:00,36.5,35.2,29.63,North,354,3.0,5.0,95,0.01,OVC,,0.28,WeatherDisplay:10.37,2013-02-14 01:45:00,
2013-02-13 21:00:00,36.3,35.3,29.60,North,350,5.0,6.0,96,0.01,OVC,,0.30,WeatherDisplay:10.37,2013-02-14 02:00:00,
2013-02-13 21:15:00,36.0,34.9,29.60,North,356,9.0,14.0,96,0.01,OVC,,0.31,WeatherDisplay:10.37,2013-02-14 02:15:00,
2013-02-13 21:30:00,35.6,34.6,29.63,NNW,327,10.0,14.0,96,0.00,OVC,,0.31,WeatherDisplay:10.37,2013-02-14 02:30:00,
2013-02-13 21:45:00,35.2,34.5,29.63,North,353,10.0,13.0,97,0.01,OVC,,0.33,WeatherDisplay:10.37,2013-02-14 02:45:00,
2013-02-13 22:00:00,34.9,34.1,29.63,North,356,9.0,15.0,97,0.01,OVC,,0.34,WeatherDisplay:10.37,2013-02-14 03:00:00,
2013-02-13 22:15:00,34.9,34.4,29.63,NNW,348,12.0,14.0,98,0.01,OVC,,0.35,WeatherDisplay:10.37,2013-02-14 03:15:00,
2013-02-13 22:30:00,34.7,34.2,29.63,North,353,12.0,14.0,98,0.01,OVC,,0.37,WeatherDisplay:10.37,2013-02-14 03:30:00,
2013-02-13 22:45:00,34.7,34.2,29.66,North,350,12.0,16.0,98,0.01,OVC,,0.38,WeatherDisplay:10.37,2013-02-14 03:45:00,
2013-02-13 23:00:00,34.5,34.0,29.66,North,350,9.0,11.0,98,0.03,RA,,0.41,WeatherDisplay:10.37,2013-02-14 04:00:00,
2013-02-13 23:15:00,34.0,33.5,29.69,NNW,344,10.0,12.0,98,0.03,RA,,0.44,WeatherDisplay:10.37,2013-02-14 04:15:00,
2013-02-13 23:30:00,33.1,32.8,29.69,NNW,342,8.0,9.0,99,0.01,OVC,,0.45,WeatherDisplay:10.37,2013-02-14 04:30:00,
2013-02-13 23:45:00,32.9,32.7,29.69,NNW,346,8.0,12.0,99,0.01,OVC,,0.47,WeatherDisplay:10.37,2013-02-14 04:45:00,